Weather History for Edinburgh Airport, United Kingdom

Change the Weather History Date:

Sunday, September 8, 2013

  Actual Average Record
Temperature  
Mean Temperature 49 °F -  
Max Temperature 57 °F 60 °F 69 °F (1999)
Min Temperature 41 °F 46 °F 35 °F (2004)
Degree Days  
Heating Degree Days 16    
Moisture  
Dew Point 45 °F    
Average Humidity 82    
Maximum Humidity 100    
Minimum Humidity 63    
Precipitation  
Precipitation 0.00 in 0.09 in - ()
Sea Level Pressure  
Sea Level Pressure 29.95 in    
Wind  
Wind Speed 5 mph ()    
Max Wind Speed 12 mph    
Max Gust Speed -    
Visibility 6.2 miles    
Events      
Averages and records for this station are not official NWS values.
T = Trace of Precipitation, MM = Missing Value Source: Averaged Metar Reports

Daily Weather History Graph

Daily Weather History Graph

Search for Another Location

Airport:

Trip Planner

Search our weather history database for the weather conditions in past years. The results will help you decide how hot, cold, wet, or windy it might be!

Date:

Astronomy

Sep. 08, 2013 Rise Set
Actual Time 6:31 AM BST 7:49 PM BST
Civil Twilight 5:53 AM BST 8:27 PM BST
Nautical Twilight 5:05 AM BST 9:14 PM BST
Astronomical Twilight 4:13 AM BST 10:06 PM BST
Moon 10:16 AM BST (9/8) 8:28 PM BST (9/8)
Length of Visible Light 14h 34m
Length of Day
13h 17m
Waxing Crescent, 9% of the Moon is Illuminated
Sep 8
Waxing Crescent
Sep 12
First Quarter
Sep 19
Full
Sep 27
Last Quarter
Oct 5
New

Hourly Weather History & Observations

Time (BST) Temp. Windchill Dew Point Humidity Pressure Visibility Wind Dir Wind Speed Gust Speed Precip Events Conditions
12:20 AM 48.2 °F - 42.8 °F 82% 29.92 in - North 5.8 mph - N/A   Clear
12:50 AM 46.4 °F 43.5 °F 41.0 °F 81% 29.95 in - ENE 5.8 mph - N/A   Clear
1:20 AM 44.6 °F 41.4 °F 41.0 °F 87% 29.95 in - ENE 5.8 mph - N/A   Clear
1:50 AM 44.6 °F 41.4 °F 41.0 °F 87% 29.95 in - East 5.8 mph - N/A   Clear
2:20 AM 48.2 °F - 42.8 °F 82% 29.95 in - East 6.9 mph - N/A   Clear
2:50 AM 48.2 °F - 42.8 °F 82% 29.95 in - ESE 5.8 mph - N/A   Clear
3:20 AM 46.4 °F 45.2 °F 41.0 °F 81% 29.95 in - Variable 3.5 mph - N/A   Clear
3:50 AM 44.6 °F 43.1 °F 41.0 °F 87% 29.95 in 6.2 mi Variable 3.5 mph - N/A   Unknown
4:20 AM 44.6 °F - 42.8 °F 93% 29.95 in - Variable 2.3 mph - N/A   Clear
4:50 AM 42.8 °F - 41.0 °F 93% 29.95 in 6.2 mi Calm Calm - N/A   Scattered Clouds
5:20 AM 42.8 °F - 41.0 °F 93% 29.95 in 6.2 mi Variable 2.3 mph - N/A   Partly Cloudy
5:50 AM 42.8 °F 40.1 °F 41.0 °F 93% 29.95 in - SSE 4.6 mph - N/A   Clear
6:20 AM 41.0 °F 39.0 °F 41.0 °F 100% 29.95 in 6.2 mi Variable 3.5 mph - N/A   Unknown
6:50 AM 42.8 °F 41.1 °F 39.2 °F 87% 29.98 in 6.2 mi Variable 3.5 mph - N/A   Unknown
7:20 AM 48.2 °F - 42.8 °F 82% 29.98 in - South 5.8 mph - N/A   Clear
7:50 AM 46.4 °F 45.2 °F 42.8 °F 87% 29.95 in - Variable 3.5 mph - N/A   Clear
8:20 AM 50.0 °F - 44.6 °F 82% 29.98 in - NE 6.9 mph - N/A   Clear
8:50 AM 50.0 °F - 44.6 °F 82% 29.98 in - ENE 5.8 mph - N/A   Clear
9:20 AM 51.8 °F - 44.6 °F 76% 29.98 in - East 9.2 mph - N/A   Clear
9:50 AM 53.6 °F - 44.6 °F 72% 29.98 in - East 6.9 mph - N/A   Clear
10:20 AM 53.6 °F - 44.6 °F 72% 29.98 in - East 8.1 mph - N/A   Clear
10:50 AM 55.4 °F - 44.6 °F 67% 29.98 in - ENE 8.1 mph - N/A   Clear
11:20 AM 57.2 °F - 44.6 °F 63% 29.98 in 6.2 mi East 5.8 mph - N/A   Scattered Clouds
11:50 AM 55.4 °F - 44.6 °F 67% 29.98 in 6.2 mi NE 9.2 mph - N/A   Mostly Cloudy
12:20 PM 55.4 °F - 46.4 °F 72% 29.98 in 6.2 mi ENE 9.2 mph - N/A   Scattered Clouds
12:50 PM 55.4 °F - 48.2 °F 77% 29.95 in 6.2 mi NE 9.2 mph - N/A   Scattered Clouds
1:20 PM 55.4 °F - 46.4 °F 72% 29.95 in 6.2 mi NE 9.2 mph - N/A   Scattered Clouds
1:50 PM 55.4 °F - 46.4 °F 72% 29.95 in 6.2 mi NE 10.4 mph - N/A   Scattered Clouds
2:20 PM 57.2 °F - 46.4 °F 67% 29.95 in 6.2 mi ENE 11.5 mph - N/A   Scattered Clouds
2:50 PM 57.2 °F - 48.2 °F 72% 29.95 in 6.2 mi ENE 11.5 mph - N/A   Scattered Clouds
3:20 PM 57.2 °F - 48.2 °F 72% 29.92 in 6.2 mi NE 10.4 mph - N/A   Partly Cloudy
3:50 PM 57.2 °F - 46.4 °F 67% 29.92 in 6.2 mi NE 11.5 mph - N/A   Partly Cloudy
4:20 PM 55.4 °F - 48.2 °F 77% 29.92 in 6.2 mi NE 10.4 mph - N/A   Scattered Clouds
4:50 PM 57.2 °F - 48.2 °F 72% 29.92 in 6.2 mi ENE 8.1 mph - N/A   Mostly Cloudy
5:20 PM 57.2 °F - 50.0 °F 77% 29.92 in 6.2 mi NNE 5.8 mph - N/A   Mostly Cloudy
5:50 PM 55.4 °F - 48.2 °F 77% 29.92 in 6.2 mi NE 6.9 mph - N/A   Scattered Clouds
6:20 PM 55.4 °F - 48.2 °F 77% 29.92 in 6.2 mi NE 6.9 mph - N/A   Mostly Cloudy
6:50 PM 55.4 °F - 50.0 °F 82% 29.92 in 6.2 mi NE 5.8 mph - N/A   Scattered Clouds
7:20 PM 55.4 °F - 50.0 °F 82% 29.95 in 6.2 mi NE 4.6 mph - N/A   Mostly Cloudy
7:50 PM 55.4 °F - 50.0 °F 82% 29.95 in 6.2 mi Variable 2.3 mph - N/A   Mostly Cloudy
8:20 PM 53.6 °F - 50.0 °F 88% 29.95 in 6.2 mi Calm Calm - N/A   Scattered Clouds
8:50 PM 51.8 °F - 48.2 °F 88% 29.95 in 6.2 mi Variable 2.3 mph - N/A   Scattered Clouds
9:20 PM 50.0 °F - 46.4 °F 87% 29.95 in 6.2 mi Variable 3.5 mph - N/A   Scattered Clouds
9:50 PM 50.0 °F - 46.4 °F 87% 29.95 in - West 4.6 mph - N/A   Clear
10:20 PM 46.4 °F - 44.6 °F 93% 29.95 in - Calm Calm - N/A   Clear
10:50 PM 44.6 °F - 44.6 °F 100% 29.95 in 6.2 mi Calm Calm - N/A   Unknown
11:20 PM 42.8 °F - 42.8 °F 100% 29.95 in 6.2 mi Calm Calm - N/A   Partly Cloudy
11:50 PM 42.8 °F - 42.8 °F 100% 29.95 in 6.2 mi Calm Calm - N/A   Partly Cloudy